Location: *
(50.3440°N, 18.6237°E)
Time: 17:06:49
(UTC+00:00)

Cosmos 1371 Rocket - Pass Details

Date: 30 November 2020
Orbit: 753 x 790 km, 74.0° (Epoch: 17 January)

Event Time Altitude Azimuth Distance (km) Brightness Sun altitude
Rises 16:50:29 0° 339° (NNW) 3,220 7.4 -19.1°
Reaches altitude 10° 16:53:01 10° 348° (NNW) 2,293 6.5 -19.5°
Enters shadow 16:57:39 38° 51° (NE) 1,153 4.5 -20.2°
